Location: Glencliff
(36.1226°N, 86.7183°W)
Time: 13:18:07
(UTC+00:00)

Cosmos 1538 Rocket - Pass Details

Date: 25 August 2019
Orbit: 753 x 791 km, 74.0° (Epoch: 16 September)

Event Time Altitude Azimuth Distance (km) Brightness Sun altitude
Rises 01:13:36 0° 340° (NNW) 3,209 7.9 -10.0°
Reaches altitude 10° 01:15:58 10° 338° (NNW) 2,281 7.1 -10.5°
Maximum altitude 01:21:07 74° 255° (WSW) 786 4.2 -11.4°
Drops below altitude 10° 01:26:16 10° 171° (S) 2,277 6.1 -12.4°
Enters shadow 01:28:36 - 169° (S) 3,191 6.9 -12.8°
